SWA1130 KBWI-KDEN

Flight info

Callsign SWA1130
Flight time 2h 25m
Altitude 38000
Route LINSE2 MCRAY Q178 DJB CPONE JOT/N0460F400 J60 IOW DSM OBH BRWRY LAWGR3
Aircraft B737/M-SDE2E3FGHIRWXY/LB1

Departure

Time 2026-05-07 23:30
Airport Baltimore/Washington International Thurgood Marshall Airport (KBWI)

Arrival

Time 2026-05-08 01:56
Airport Denver International Airport (KDEN)
Time Latitude Longitude Altitude Speed Heading
2026-05-07 23:04 39.17611 -76.66860 159 ft 0 kts 314°
2026-05-07 23:21 39.17606 -76.66854 159 ft 2 kts 314°
2026-05-07 23:21 39.17598 -76.66843 158 ft 2 kts 314°
2026-05-07 23:22 39.17590 -76.66832 158 ft 2 kts 314°
2026-05-07 23:22 39.17582 -76.66822 158 ft 2 kts 302°
2026-05-07 23:22 39.17576 -76.66808 158 ft 2 kts 275°
2026-05-07 23:22 39.17576 -76.66793 158 ft 2 kts 247°
2026-05-07 23:23 39.17577 -76.66789 158 ft 2 kts 237°
2026-05-07 23:23 39.17579 -76.66784 157 ft 0 kts 219°
2026-05-07 23:24 39.17575 -76.66785 157 ft 3 kts 198°
2026-05-07 23:24 39.17553 -76.66796 158 ft 4 kts 204°
2026-05-07 23:24 39.17526 -76.66815 158 ft 5 kts 209°
2026-05-07 23:24 39.17491 -76.66842 158 ft 7 kts 217°
2026-05-07 23:25 39.17469 -76.66904 158 ft 8 kts 272°
2026-05-07 23:25 39.17480 -76.66980 159 ft 9 kts 280°
2026-05-07 23:25 39.17512 -76.67064 161 ft 12 kts 306°
2026-05-07 23:25 39.17580 -76.67135 159 ft 14 kts 321°
2026-05-07 23:26 39.17666 -76.67215 157 ft 16 kts 327°
2026-05-07 23:26 39.17757 -76.67301 156 ft 17 kts 323°
2026-05-07 23:26 39.17855 -76.67393 154 ft 19 kts 325°
2026-05-07 23:26 39.17964 -76.67481 156 ft 18 kts 324°
2026-05-07 23:27 39.18156 -76.67673 161 ft 17 kts 323°
2026-05-07 23:27 39.18252 -76.67755 162 ft 17 kts 325°
2026-05-07 23:27 39.18348 -76.67849 161 ft 18 kts 322°
2026-05-07 23:28 39.18471 -76.67964 160 ft 17 kts 326°
2026-05-07 23:28 39.18550 -76.68036 158 ft 0 kts 319°
2026-05-07 23:28 39.18567 -76.68068 158 ft 7 kts 292°
2026-05-07 23:28 39.18554 -76.68122 159 ft 7 kts 230°
2026-05-07 23:29 39.18518 -76.68158 159 ft 8 kts 190°
2026-05-07 23:29 39.18459 -76.68125 159 ft 12 kts 143°
2026-05-07 23:29 39.18184 -76.67869 163 ft 87 kts 144°
2026-05-07 23:29 39.17498 -76.67230 169 ft 152 kts 146°
2026-05-07 23:30 39.16579 -76.66373 633 ft 174 kts 145°
2026-05-07 23:30 39.15559 -76.65377 1350 ft 187 kts 145°
2026-05-07 23:30 39.14406 -76.64849 2353 ft 172 kts 189°
2026-05-07 23:30 39.13359 -76.65556 2778 ft 183 kts 238°
2026-05-07 23:31 39.13080 -76.67177 3041 ft 201 kts 284°
2026-05-07 23:31 39.13875 -76.68721 3268 ft 222 kts 323°
2026-05-07 23:31 39.15096 -76.70021 3708 ft 235 kts 314°
2026-05-07 23:31 39.16271 -76.71631 4091 ft 254 kts 312°
2026-05-07 23:32 39.17451 -76.73346 4913 ft 256 kts 311°
2026-05-07 23:32 39.18596 -76.75108 5763 ft 258 kts 305°
2026-05-07 23:32 39.19418 -76.77164 6645 ft 258 kts 293°
2026-05-07 23:32 39.20100 -76.79281 7686 ft 252 kts 292°
2026-05-07 23:33 39.20759 -76.81347 8796 ft 247 kts 290°
2026-05-07 23:33 39.21413 -76.83379 9873 ft 244 kts 290°
2026-05-07 23:33 39.22077 -76.85427 10521 ft 256 kts 289°
2026-05-07 23:33 39.22804 -76.87664 10717 ft 284 kts 290°
2026-05-07 23:34 39.23608 -76.90114 10926 ft 309 kts 290°
2026-05-07 23:34 39.24476 -76.92743 11301 ft 326 kts 290°
2026-05-07 23:34 39.25379 -76.95453 12028 ft 331 kts 289°
2026-05-07 23:34 39.26292 -76.98186 12899 ft 332 kts 288°
2026-05-07 23:35 39.27199 -77.00901 13743 ft 335 kts 288°
2026-05-07 23:35 39.28139 -77.03718 14502 ft 339 kts 288°
2026-05-07 23:35 39.29075 -77.06525 15292 ft 341 kts 288°
2026-05-07 23:35 39.30017 -77.09352 16080 ft 344 kts 288°
2026-05-07 23:36 39.30951 -77.12161 16848 ft 347 kts 288°
2026-05-07 23:36 39.31905 -77.15036 17643 ft 350 kts 288°
2026-05-07 23:36 39.32866 -77.17932 18388 ft 352 kts 288°
2026-05-07 23:36 39.33834 -77.20851 19042 ft 355 kts 288°
2026-05-07 23:37 39.34808 -77.23790 19759 ft 356 kts 288°
2026-05-07 23:37 39.35776 -77.26711 20576 ft 353 kts 287°
2026-05-07 23:37 39.36745 -77.29642 21199 ft 356 kts 287°
2026-05-07 23:37 39.37694 -77.32616 21735 ft 360 kts 286°
2026-05-07 23:38 39.38614 -77.35633 22322 ft 362 kts 285°
2026-05-07 23:38 39.39532 -77.38681 22912 ft 364 kts 285°
2026-05-07 23:38 39.40455 -77.41744 23472 ft 367 kts 285°
2026-05-07 23:38 39.41387 -77.44824 23922 ft 369 kts 285°
2026-05-07 23:39 39.42325 -77.47920 24418 ft 370 kts 285°
2026-05-07 23:39 39.43264 -77.51014 24946 ft 370 kts 285°
2026-05-07 23:39 39.44205 -77.54116 25394 ft 372 kts 285°
2026-05-07 23:39 39.45153 -77.57244 25835 ft 374 kts 285°
2026-05-07 23:40 39.46100 -77.60376 26339 ft 374 kts 285°
2026-05-07 23:40 39.47042 -77.63501 26908 ft 372 kts 285°
2026-05-07 23:40 39.47981 -77.66630 27316 ft 374 kts 285°
2026-05-07 23:40 39.48923 -77.69778 27676 ft 377 kts 285°
2026-05-07 23:41 39.49872 -77.72951 28058 ft 378 kts 285°
2026-05-07 23:41 39.50823 -77.76129 28457 ft 380 kts 285°
2026-05-07 23:41 39.51779 -77.79325 28836 ft 381 kts 284°
2026-05-07 23:41 39.52734 -77.82522 29319 ft 380 kts 284°
2026-05-07 23:42 39.53682 -77.85693 29938 ft 375 kts 284°
2026-05-07 23:42 39.54627 -77.88821 30477 ft 371 kts 285°
2026-05-07 23:42 39.55580 -77.91921 30904 ft 370 kts 285°
2026-05-07 23:42 39.56520 -77.94974 31262 ft 370 kts 285°
2026-05-07 23:43 39.57471 -77.98058 31742 ft 367 kts 285°
2026-05-07 23:43 39.58410 -78.01109 32258 ft 363 kts 285°
2026-05-07 23:43 39.59341 -78.04139 32675 ft 361 kts 284°
2026-05-07 23:43 39.60267 -78.07166 33040 ft 360 kts 284°
2026-05-07 23:44 39.61189 -78.10183 33428 ft 358 kts 284°
2026-05-07 23:44 39.62101 -78.13177 33829 ft 357 kts 284°
2026-05-07 23:44 39.63011 -78.16168 34132 ft 356 kts 284°
2026-05-07 23:44 39.63921 -78.19161 34355 ft 357 kts 285°
2026-05-07 23:45 39.64832 -78.22159 34542 ft 358 kts 285°
2026-05-07 23:45 39.65748 -78.25177 34818 ft 360 kts 285°
2026-05-07 23:45 39.66667 -78.28208 34984 ft 362 kts 285°
2026-05-07 23:45 39.67588 -78.31246 35198 ft 362 kts 285°
2026-05-07 23:46 39.68510 -78.34291 35431 ft 362 kts 284°
2026-05-07 23:46 39.69430 -78.37335 35646 ft 363 kts 285°
2026-05-07 23:46 39.70041 -78.39357 35792 ft 363 kts 285°
2026-05-07 23:46 39.71272 -78.43436 36064 ft 364 kts 285°
2026-05-07 23:47 39.72195 -78.46497 36272 ft 364 kts 285°
2026-05-07 23:47 39.73116 -78.49558 36470 ft 364 kts 285°
2026-05-07 23:47 39.74068 -78.52725 36662 ft 364 kts 285°
2026-05-07 23:47 39.74953 -78.55672 36808 ft 364 kts 285°
2026-05-07 23:48 39.75875 -78.58744 36943 ft 366 kts 285°
2026-05-07 23:48 39.76802 -78.61839 37046 ft 368 kts 285°
2026-05-07 23:48 39.77720 -78.64908 37150 ft 370 kts 285°
2026-05-07 23:48 39.78652 -78.68029 37276 ft 371 kts 285°
2026-05-07 23:49 39.79586 -78.71154 37516 ft 370 kts 285°
2026-05-07 23:49 39.80515 -78.74268 37693 ft 370 kts 285°
2026-05-07 23:49 39.81446 -78.77391 37869 ft 370 kts 285°
2026-05-07 23:49 39.82375 -78.80514 37901 ft 370 kts 285°
2026-05-07 23:50 39.84229 -78.86757 37919 ft 370 kts 285°
2026-05-07 23:50 39.86080 -78.93002 37909 ft 370 kts 285°
2026-05-07 23:51 39.87928 -78.99258 37923 ft 370 kts 285°
2026-05-07 23:51 39.89762 -79.05475 37917 ft 370 kts 285°
2026-05-07 23:52 39.91610 -79.11757 37928 ft 372 kts 285°
2026-05-07 23:52 39.93462 -79.18068 37936 ft 373 kts 285°
2026-05-07 23:53 39.95315 -79.24396 37932 ft 374 kts 285°
2026-05-07 23:53 39.97159 -79.30707 37948 ft 375 kts 285°
2026-05-07 23:54 39.99014 -79.37071 37966 ft 376 kts 285°
2026-05-07 23:54 40.01207 -79.43332 37982 ft 386 kts 294°
2026-05-07 23:55 40.04217 -79.49187 37944 ft 389 kts 296°
2026-05-07 23:55 40.07237 -79.54995 37941 ft 389 kts 296°
2026-05-07 23:56 40.10253 -79.60843 37932 ft 388 kts 296°
2026-05-07 23:56 40.13251 -79.66686 37934 ft 387 kts 296°
2026-05-07 23:57 40.16239 -79.72527 37937 ft 386 kts 296°
2026-05-07 23:57 40.19200 -79.78326 37934 ft 385 kts 295°
2026-05-07 23:58 40.22170 -79.84154 37932 ft 385 kts 296°
2026-05-07 23:58 40.25132 -79.89977 37930 ft 384 kts 296°
2026-05-07 23:59 40.28089 -79.95802 37924 ft 384 kts 296°
2026-05-07 23:59 40.31041 -80.01626 37931 ft 383 kts 296°
2026-05-08 00:00 40.33967 -80.07414 37920 ft 384 kts 295°
2026-05-08 00:00 40.36906 -80.13252 37943 ft 384 kts 295°
2026-05-08 00:01 40.39842 -80.19097 37968 ft 384 kts 295°
2026-05-08 00:01 40.42775 -80.24951 37944 ft 384 kts 295°
2026-05-08 00:02 40.45703 -80.30800 37946 ft 383 kts 295°
2026-05-08 00:02 40.48625 -80.36645 37949 ft 383 kts 296°
2026-05-08 00:03 40.51527 -80.42461 37990 ft 383 kts 295°
2026-05-08 00:03 40.54445 -80.48322 37959 ft 384 kts 296°
2026-05-08 00:04 40.57369 -80.54202 37995 ft 384 kts 296°
2026-05-08 00:04 40.60293 -80.60096 37981 ft 385 kts 295°
2026-05-08 00:05 40.62718 -80.65004 37991 ft 385 kts 295°
2026-05-08 00:05 40.66111 -80.71885 37986 ft 385 kts 295°
2026-05-08 00:06 40.69031 -80.77807 37997 ft 386 kts 295°
2026-05-08 00:06 40.71483 -80.82772 37993 ft 386 kts 295°
2026-05-08 00:07 40.74385 -80.88659 38001 ft 386 kts 295°
2026-05-08 00:07 40.77304 -80.94595 38000 ft 386 kts 296°
2026-05-08 00:08 40.80224 -81.00545 37996 ft 387 kts 296°
2026-05-08 00:08 40.83144 -81.06506 37983 ft 386 kts 296°
2026-05-08 00:09 40.86056 -81.12460 37982 ft 386 kts 296°
2026-05-08 00:09 40.88939 -81.18373 37976 ft 385 kts 296°
2026-05-08 00:10 40.91835 -81.24331 37976 ft 385 kts 296°
2026-05-08 00:10 40.94725 -81.30290 37990 ft 384 kts 296°
2026-05-08 00:11 40.97607 -81.36243 37978 ft 384 kts 296°
2026-05-08 00:11 41.00483 -81.42194 37962 ft 383 kts 296°
2026-05-08 00:12 41.03351 -81.48140 38001 ft 383 kts 296°
2026-05-08 00:12 41.06199 -81.54057 37972 ft 383 kts 296°
2026-05-08 00:13 41.09062 -81.60015 37986 ft 383 kts 296°
2026-05-08 00:13 41.11918 -81.65966 38008 ft 383 kts 296°
2026-05-08 00:14 41.14775 -81.71932 37996 ft 383 kts 296°
2026-05-08 00:14 41.17632 -81.77908 37991 ft 384 kts 296°
2026-05-08 00:15 41.20469 -81.83855 37984 ft 384 kts 296°
2026-05-08 00:15 41.23328 -81.89861 37978 ft 385 kts 296°
2026-05-08 00:16 41.26186 -81.95876 37973 ft 385 kts 296°
2026-05-08 00:16 41.29040 -82.01896 38007 ft 385 kts 296°
2026-05-08 00:17 41.31883 -82.07900 37983 ft 387 kts 296°
2026-05-08 00:17 41.34485 -82.14114 37981 ft 381 kts 287°
2026-05-08 00:18 41.36009 -82.20819 37971 ft 378 kts 278°
2026-05-08 00:18 41.36543 -82.27756 37968 ft 377 kts 273°
2026-05-08 00:19 41.36925 -82.34721 37976 ft 378 kts 273°
2026-05-08 00:19 41.37306 -82.41654 37978 ft 379 kts 273°
2026-05-08 00:20 41.37700 -82.48656 37985 ft 380 kts 273°
2026-05-08 00:20 41.38096 -82.55671 37991 ft 380 kts 273°
2026-05-08 00:21 41.38492 -82.62700 37994 ft 381 kts 273°
2026-05-08 00:21 41.38883 -82.69730 37988 ft 381 kts 273°
2026-05-08 00:22 41.39271 -82.76765 37988 ft 381 kts 273°
2026-05-08 00:22 41.39655 -82.83814 37987 ft 382 kts 273°
2026-05-08 00:23 41.40033 -82.90835 37991 ft 383 kts 273°
2026-05-08 00:23 41.40410 -82.97922 37990 ft 384 kts 273°
2026-05-08 00:24 41.40784 -83.05016 37982 ft 384 kts 273°
2026-05-08 00:24 41.41153 -83.12118 37983 ft 384 kts 273°
2026-05-08 00:25 41.41515 -83.19171 37974 ft 385 kts 274°
2026-05-08 00:25 41.41876 -83.26287 37986 ft 385 kts 274°
2026-05-08 00:26 41.42233 -83.33406 37982 ft 385 kts 273°
2026-05-08 00:26 41.42586 -83.40537 37980 ft 386 kts 273°
2026-05-08 00:27 41.42935 -83.47664 37972 ft 386 kts 273°
2026-05-08 00:27 41.43277 -83.54744 37961 ft 386 kts 274°
2026-05-08 00:28 41.43617 -83.61879 37973 ft 386 kts 274°
2026-05-08 00:28 41.43953 -83.69027 37969 ft 387 kts 273°
2026-05-08 00:29 41.44285 -83.76179 37968 ft 387 kts 273°
2026-05-08 00:29 41.44612 -83.83336 37965 ft 387 kts 273°
2026-05-08 00:30 41.44935 -83.90494 37968 ft 387 kts 273°
2026-05-08 00:30 41.45252 -83.97607 37966 ft 387 kts 273°
2026-05-08 00:31 41.45567 -84.04776 37971 ft 387 kts 273°
2026-05-08 00:31 41.45877 -84.11948 37978 ft 388 kts 273°
2026-05-08 00:32 41.46183 -84.19126 37979 ft 388 kts 273°
2026-05-08 00:32 41.46483 -84.26257 37981 ft 388 kts 273°
2026-05-08 00:33 41.46780 -84.33438 37983 ft 388 kts 273°
2026-05-08 00:33 41.47074 -84.40629 37991 ft 389 kts 273°
2026-05-08 00:34 41.47363 -84.47828 37989 ft 389 kts 273°
2026-05-08 00:34 41.47646 -84.55001 37990 ft 389 kts 273°
2026-05-08 00:35 41.47926 -84.62199 37991 ft 389 kts 273°
2026-05-08 00:35 41.48200 -84.69348 38001 ft 389 kts 273°
2026-05-08 00:36 41.48471 -84.76546 37988 ft 389 kts 273°
2026-05-08 00:36 41.48738 -84.83746 37984 ft 389 kts 273°
2026-05-08 00:37 41.49000 -84.90942 37977 ft 388 kts 273°
2026-05-08 00:38 41.49382 -85.01682 37972 ft 388 kts 273°
2026-05-08 00:38 41.49632 -85.08865 37977 ft 387 kts 273°
2026-05-08 00:39 41.49878 -85.16041 37969 ft 387 kts 273°
2026-05-08 00:39 41.50117 -85.23160 37976 ft 386 kts 273°
2026-05-08 00:40 41.50353 -85.30314 37976 ft 386 kts 273°
2026-05-08 00:40 41.50585 -85.37468 37990 ft 386 kts 273°
2026-05-08 00:41 41.50812 -85.44613 37981 ft 385 kts 273°
2026-05-08 00:41 41.51034 -85.51746 37966 ft 385 kts 273°
2026-05-08 00:42 41.51251 -85.58873 37962 ft 384 kts 273°
2026-05-08 00:42 41.51462 -85.65942 37954 ft 384 kts 273°
2026-05-08 00:43 41.51671 -85.73056 37954 ft 384 kts 273°
2026-05-08 00:43 41.51874 -85.80166 37954 ft 384 kts 273°
2026-05-08 00:44 41.52074 -85.87276 37954 ft 383 kts 273°
2026-05-08 00:44 41.52270 -85.94388 37957 ft 383 kts 273°
2026-05-08 00:45 41.52459 -86.01450 37961 ft 384 kts 273°
2026-05-08 00:45 41.52619 -86.08569 37973 ft 384 kts 272°
2026-05-08 00:46 41.52743 -86.15687 37977 ft 384 kts 272°
2026-05-08 00:46 41.52862 -86.22808 37974 ft 383 kts 272°
2026-05-08 00:47 41.52980 -86.29870 37976 ft 383 kts 272°
2026-05-08 00:47 41.53096 -86.36972 37975 ft 383 kts 272°
2026-05-08 00:48 41.53209 -86.44074 37975 ft 383 kts 272°
2026-05-08 00:48 41.53317 -86.51181 37955 ft 383 kts 272°
2026-05-08 00:49 41.53421 -86.58280 37935 ft 383 kts 272°
2026-05-08 00:49 41.53519 -86.65326 37942 ft 382 kts 272°
2026-05-08 00:50 41.53614 -86.72410 37944 ft 382 kts 272°
2026-05-08 00:50 41.53705 -86.79497 37946 ft 382 kts 272°
2026-05-08 00:51 41.53791 -86.86580 37945 ft 382 kts 272°
2026-05-08 00:51 41.53872 -86.93617 37949 ft 382 kts 272°
2026-05-08 00:52 41.53949 -87.00698 37950 ft 381 kts 272°
2026-05-08 00:52 41.54023 -87.07775 37955 ft 381 kts 272°
2026-05-08 00:53 41.54091 -87.14854 37948 ft 381 kts 272°
2026-05-08 00:53 41.54156 -87.21924 37926 ft 381 kts 272°
2026-05-08 00:54 41.54215 -87.28949 37921 ft 381 kts 272°
2026-05-08 00:54 41.54271 -87.36022 37908 ft 381 kts 272°
2026-05-08 00:55 41.54322 -87.43088 37931 ft 381 kts 272°
2026-05-08 00:55 41.54369 -87.50161 37934 ft 381 kts 272°
2026-05-08 00:56 41.54416 -87.57896 37940 ft 382 kts 272°
2026-05-08 00:56 41.54543 -87.86182 37919 ft 382 kts 272°
2026-05-08 00:57 41.54599 -88.14551 37902 ft 381 kts 272°
2026-05-08 00:57 41.54644 -88.42622 37923 ft 379 kts 272°
2026-05-08 00:58 41.54783 -88.70580 37917 ft 379 kts 272°
2026-05-08 00:58 41.54832 -88.98715 37927 ft 379 kts 271°
2026-05-08 00:59 41.54826 -89.19251 37920 ft 379 kts 271°
2026-05-08 00:59 41.54816 -89.26292 37909 ft 379 kts 271°
2026-05-08 01:00 41.54801 -89.33288 37911 ft 379 kts 271°
2026-05-08 01:00 41.54716 -89.55418 37924 ft 380 kts 271°
2026-05-08 01:01 41.54547 -89.83644 37914 ft 380 kts 271°
2026-05-08 01:01 41.54309 -90.11891 37909 ft 381 kts 271°
2026-05-08 01:02 41.54001 -90.40196 37882 ft 382 kts 270°
2026-05-08 01:02 41.53625 -90.68405 37914 ft 383 kts 270°
2026-05-08 01:03 41.53176 -90.96872 37906 ft 384 kts 270°
2026-05-08 01:03 41.52654 -91.25427 37897 ft 386 kts 270°
2026-05-08 01:04 41.52059 -91.54167 37877 ft 389 kts 270°
2026-05-08 01:04 41.51221 -91.82852 37916 ft 390 kts 269°
2026-05-08 01:05 41.50225 -92.11802 37900 ft 392 kts 269°
2026-05-08 01:05 41.49171 -92.40675 37882 ft 393 kts 268°
2026-05-08 01:06 41.48029 -92.69879 37863 ft 396 kts 268°
2026-05-08 01:06 41.46814 -92.99058 37894 ft 397 kts 268°
2026-05-08 01:07 41.45510 -93.28563 37884 ft 399 kts 268°
2026-05-08 01:07 41.44127 -93.58154 37889 ft 400 kts 268°
2026-05-08 01:08 41.43902 -93.87762 37871 ft 400 kts 271°
2026-05-08 01:08 41.44061 -94.17089 37881 ft 400 kts 271°
2026-05-08 01:09 41.44098 -94.46742 37882 ft 400 kts 271°
2026-05-08 01:09 41.44064 -94.76407 37865 ft 400 kts 271°
2026-05-08 01:10 41.43953 -95.06017 37853 ft 399 kts 271°
2026-05-08 01:10 41.43768 -95.35379 37862 ft 399 kts 271°
2026-05-08 01:11 41.43506 -95.65045 37864 ft 401 kts 270°
2026-05-08 01:11 41.43166 -95.94800 37875 ft 402 kts 270°
2026-05-08 01:12 41.42749 -96.24577 37881 ft 402 kts 270°
2026-05-08 01:12 41.42259 -96.54148 37877 ft 402 kts 270°
2026-05-08 01:13 41.41688 -96.84011 37888 ft 403 kts 270°
2026-05-08 01:13 41.41039 -97.13867 37893 ft 403 kts 270°
2026-05-08 01:14 41.40312 -97.43755 37899 ft 404 kts 270°
2026-05-08 01:14 41.39516 -97.73352 37885 ft 404 kts 270°
2026-05-08 01:15 41.38634 -98.03260 37880 ft 404 kts 270°
2026-05-08 01:15 41.37666 -98.33193 37887 ft 405 kts 268°
2026-05-08 01:15 41.34626 -98.47724 37897 ft 410 kts 255°
2026-05-08 01:16 41.31011 -98.62154 37879 ft 411 kts 256°
2026-05-08 01:16 41.23941 -98.90774 37871 ft 411 kts 256°
2026-05-08 01:17 41.16707 -99.19586 37861 ft 411 kts 256°
2026-05-08 01:17 41.09392 -99.48377 37838 ft 412 kts 256°
2026-05-08 01:18 41.02693 -99.74444 37865 ft 412 kts 255°
2026-05-08 01:18 41.00837 -99.81614 37862 ft 412 kts 255°
2026-05-08 01:19 40.98978 -99.88773 37854 ft 411 kts 255°
2026-05-08 01:19 40.97117 -99.95924 37868 ft 410 kts 255°
2026-05-08 01:20 40.95254 -100.03059 37850 ft 410 kts 255°
2026-05-08 01:20 40.93389 -100.10185 37855 ft 410 kts 255°
2026-05-08 01:21 40.91521 -100.17298 37843 ft 410 kts 255°
2026-05-08 01:21 40.89660 -100.24365 37837 ft 409 kts 255°
2026-05-08 01:22 40.87786 -100.31464 37843 ft 409 kts 255°
2026-05-08 01:22 40.85908 -100.38556 37849 ft 409 kts 255°
2026-05-08 01:23 40.84022 -100.45657 37853 ft 410 kts 255°
2026-05-08 01:23 40.82130 -100.52762 37857 ft 410 kts 255°
2026-05-08 01:24 40.80232 -100.59872 37838 ft 411 kts 255°
2026-05-08 01:24 40.78363 -100.66985 37845 ft 409 kts 258°
2026-05-08 01:25 40.77067 -100.74263 37859 ft 407 kts 262°
2026-05-08 01:25 40.75925 -100.81574 37855 ft 407 kts 262°
2026-05-08 01:26 40.74722 -100.88875 37872 ft 408 kts 261°
2026-05-08 01:26 40.73486 -100.96132 37865 ft 408 kts 261°
2026-05-08 01:27 40.72223 -101.03482 37868 ft 408 kts 261°
2026-05-08 01:27 40.70965 -101.10781 37869 ft 408 kts 261°
2026-05-08 01:28 40.69706 -101.18022 37868 ft 408 kts 261°
2026-05-08 01:28 40.68429 -101.25310 37871 ft 408 kts 261°
2026-05-08 01:29 40.67150 -101.32589 37865 ft 408 kts 261°
2026-05-08 01:29 40.64478 -101.47720 37897 ft 407 kts 261°
2026-05-08 01:30 40.59295 -101.76730 37878 ft 407 kts 261°
2026-05-08 01:30 40.54038 -102.05637 37862 ft 406 kts 260°
2026-05-08 01:31 40.48651 -102.34467 37882 ft 406 kts 260°
2026-05-08 01:31 40.43686 -102.60722 37851 ft 406 kts 260°
2026-05-08 01:32 40.42319 -102.67876 37870 ft 406 kts 260°
2026-05-08 01:32 40.40933 -102.75090 37378 ft 411 kts 260°
2026-05-08 01:32 40.40235 -102.78701 36770 ft 408 kts 260°
2026-05-08 01:33 40.39539 -102.82295 36185 ft 405 kts 260°
2026-05-08 01:33 40.38846 -102.85871 35484 ft 405 kts 261°
2026-05-08 01:33 40.38151 -102.89460 34715 ft 407 kts 261°
2026-05-08 01:33 40.37452 -102.93066 33944 ft 409 kts 261°
2026-05-08 01:34 40.36748 -102.96693 33031 ft 412 kts 261°
2026-05-08 01:34 40.36039 -103.00339 32181 ft 413 kts 261°
2026-05-08 01:34 40.35326 -103.03986 31514 ft 410 kts 260°
2026-05-08 01:34 40.34621 -103.07584 30867 ft 406 kts 260°
2026-05-08 01:35 40.33930 -103.11101 30300 ft 402 kts 260°
2026-05-08 01:35 40.33237 -103.14633 29684 ft 399 kts 259°
2026-05-08 01:35 40.32549 -103.18128 29067 ft 393 kts 259°
2026-05-08 01:35 40.31870 -103.21577 28454 ft 388 kts 259°
2026-05-08 01:36 40.31199 -103.24978 27860 ft 384 kts 259°
2026-05-08 01:36 40.30533 -103.28350 27247 ft 380 kts 259°
2026-05-08 01:36 40.29874 -103.31685 26651 ft 376 kts 259°
2026-05-08 01:36 40.29219 -103.34991 26036 ft 374 kts 259°
2026-05-08 01:37 40.28568 -103.38276 25432 ft 372 kts 259°
2026-05-08 01:37 40.27918 -103.41545 24829 ft 370 kts 259°
2026-05-08 01:37 40.27271 -103.44799 24242 ft 369 kts 259°
2026-05-08 01:37 40.26626 -103.48041 23647 ft 367 kts 259°
2026-05-08 01:38 40.25981 -103.51272 22945 ft 366 kts 259°
2026-05-08 01:38 40.25336 -103.54495 22290 ft 365 kts 259°
2026-05-08 01:38 40.24697 -103.57683 21886 ft 357 kts 259°
2026-05-08 01:38 40.24081 -103.60772 21819 ft 347 kts 259°
2026-05-08 01:39 40.23468 -103.63885 21761 ft 362 kts 259°
2026-05-08 01:39 40.22833 -103.67111 21662 ft 369 kts 259°
2026-05-08 01:39 40.22190 -103.70355 21560 ft 367 kts 259°
2026-05-08 01:39 40.21548 -103.73580 21469 ft 365 kts 259°
2026-05-08 01:40 40.20908 -103.76791 21367 ft 364 kts 259°
2026-05-08 01:40 40.20272 -103.79982 21273 ft 363 kts 259°
2026-05-08 01:40 40.19636 -103.83170 21181 ft 360 kts 259°
2026-05-08 01:40 40.19220 -103.85245 21107 ft 352 kts 259°
2026-05-08 01:41 40.18611 -103.88271 20992 ft 336 kts 259°
2026-05-08 01:41 40.17964 -103.91138 20839 ft 326 kts 252°
2026-05-08 01:41 40.16481 -103.94550 20360 ft 324 kts 243°
2026-05-08 01:41 40.15667 -103.96228 20067 ft 322 kts 243°
2026-05-08 01:42 40.14088 -103.99473 19548 ft 317 kts 243°
2026-05-08 01:42 40.13297 -104.01111 19288 ft 315 kts 243°
2026-05-08 01:42 40.12140 -104.03527 18903 ft 312 kts 244°
2026-05-08 01:42 40.11000 -104.05922 18518 ft 309 kts 244°
2026-05-08 01:43 40.09872 -104.08302 18109 ft 307 kts 244°
2026-05-08 01:43 40.08756 -104.10660 17689 ft 304 kts 244°
2026-05-08 01:43 40.07645 -104.13002 17287 ft 301 kts 244°
2026-05-08 01:43 40.06547 -104.15317 16913 ft 299 kts 243°
2026-05-08 01:44 40.05459 -104.17605 16610 ft 296 kts 243°
2026-05-08 01:44 40.04370 -104.19897 16314 ft 298 kts 243°
2026-05-08 01:44 40.03270 -104.22209 15970 ft 301 kts 242°
2026-05-08 01:44 40.02156 -104.24549 15601 ft 305 kts 242°
2026-05-08 01:45 40.01036 -104.26904 15237 ft 305 kts 242°
2026-05-08 01:45 39.99918 -104.29247 14879 ft 302 kts 242°
2026-05-08 01:45 39.98811 -104.31563 14526 ft 299 kts 242°
2026-05-08 01:45 39.97714 -104.33858 14178 ft 297 kts 242°
2026-05-08 01:46 39.96626 -104.36135 13833 ft 295 kts 242°
2026-05-08 01:46 39.95546 -104.38392 13454 ft 293 kts 242°
2026-05-08 01:46 39.94472 -104.40635 13078 ft 291 kts 242°
2026-05-08 01:46 39.93407 -104.42861 12699 ft 289 kts 242°
2026-05-08 01:47 39.92349 -104.45075 12324 ft 287 kts 242°
2026-05-08 01:47 39.91303 -104.47246 11959 ft 286 kts 239°
2026-05-08 01:47 39.89831 -104.49064 11569 ft 295 kts 214°
2026-05-08 01:48 39.85811 -104.50071 10886 ft 299 kts 184°
2026-05-08 01:48 39.83732 -104.50075 10519 ft 298 kts 184°
2026-05-08 01:48 39.81695 -104.50083 10175 ft 296 kts 184°
2026-05-08 01:48 39.79636 -104.50105 9817 ft 295 kts 185°
2026-05-08 01:49 39.77599 -104.50214 9433 ft 293 kts 187°
2026-05-08 01:49 39.75571 -104.50378 9048 ft 291 kts 187°
2026-05-08 01:49 39.73579 -104.50548 8655 ft 283 kts 188°
2026-05-08 01:49 39.71640 -104.50725 8282 ft 276 kts 187°
2026-05-08 01:50 39.69739 -104.50892 7921 ft 273 kts 186°
2026-05-08 01:50 39.67839 -104.51026 7547 ft 273 kts 188°
2026-05-08 01:50 39.66067 -104.51750 7182 ft 266 kts 216°
2026-05-08 01:50 39.64854 -104.53410 7034 ft 244 kts 246°
2026-05-08 01:51 39.64516 -104.55425 6977 ft 220 kts 278°
2026-05-08 01:51 39.65051 -104.57124 6987 ft 196 kts 312°
2026-05-08 01:51 39.66058 -104.58256 7024 ft 191 kts 321°
2026-05-08 01:51 39.67126 -104.59296 7005 ft 191 kts 322°
2026-05-08 01:52 39.68190 -104.60317 7005 ft 188 kts 322°
2026-05-08 01:52 39.69239 -104.61329 6988 ft 187 kts 322°
2026-05-08 01:52 39.70289 -104.62339 6984 ft 188 kts 322°
2026-05-08 01:52 39.71337 -104.63344 6995 ft 187 kts 322°
2026-05-08 01:53 39.72380 -104.64347 6984 ft 187 kts 322°
2026-05-08 01:53 39.73433 -104.65330 6989 ft 187 kts 329°
2026-05-08 01:53 39.74678 -104.65788 6997 ft 186 kts 346°
2026-05-08 01:53 39.76010 -104.66020 6718 ft 203 kts 352°
2026-05-08 01:54 39.77397 -104.66033 6559 ft 193 kts 358°
2026-05-08 01:54 39.78685 -104.66056 6313 ft 179 kts 354°
2026-05-08 01:54 39.79900 -104.66090 6070 ft 169 kts 360°
2026-05-08 01:54 39.81032 -104.66078 5824 ft 156 kts
2026-05-08 01:55 39.82068 -104.66065 5716 ft 141 kts
2026-05-08 01:55 39.83006 -104.66053 5454 ft 128 kts
2026-05-08 01:55 39.83822 -104.66040 5362 ft 104 kts
2026-05-08 01:55 39.84393 -104.66036 5377 ft 61 kts
2026-05-08 01:56 39.84681 -104.66052 5376 ft 32 kts 352°
2026-05-08 01:56 39.84832 -104.66107 5376 ft 14 kts 333°
2026-05-08 01:56 39.84857 -104.66124 5375 ft 0 kts 333°
2026-05-08 01:56 39.84871 -104.66133 5377 ft 5 kts 333°
2026-05-08 01:57 39.84901 -104.66154 5374 ft 5 kts 332°
2026-05-08 01:57 39.84930 -104.66174 5374 ft 5 kts 332°
2026-05-08 01:57 39.84959 -104.66194 5377 ft 5 kts 332°
2026-05-08 01:57 39.84990 -104.66213 5377 ft 5 kts 335°
2026-05-08 01:58 39.85036 -104.66234 5379 ft 9 kts 346°
2026-05-08 01:58 39.85116 -104.66242 5381 ft 14 kts
2026-05-08 01:58 39.85232 -104.66239 5382 ft 20 kts
2026-05-08 01:58 39.85369 -104.66237 5386 ft 19 kts
2026-05-08 01:59 39.85500 -104.66235 5389 ft 18 kts
2026-05-08 01:59 39.85626 -104.66235 5391 ft 18 kts
2026-05-08 01:59 39.85747 -104.66238 5394 ft 17 kts
2026-05-08 01:59 39.85863 -104.66233 5389 ft 17 kts
2026-05-08 02:00 39.85981 -104.66230 5395 ft 18 kts
2026-05-08 02:00 39.86108 -104.66229 5390 ft 19 kts 359°
2026-05-08 02:00 39.86247 -104.66227 5390 ft 20 kts
2026-05-08 02:00 39.86384 -104.66223 5389 ft 19 kts
2026-05-08 02:01 39.86498 -104.66278 5391 ft 19 kts 288°
2026-05-08 02:01 39.86502 -104.66443 5387 ft 18 kts 271°
2026-05-08 02:01 39.86473 -104.66623 5378 ft 21 kts 264°
2026-05-08 02:01 39.86471 -104.66844 5377 ft 27 kts 271°
2026-05-08 02:02 39.86442 -104.67055 5376 ft 21 kts 217°
2026-05-08 02:02 39.86361 -104.67099 5372 ft 0 kts 208°